Regional Weather Roundup
Issued by NWS

Home | Current Version | Previous Version | Text Only | Print | Product List | Glossary On
Versions: 1 2 3 4 5 6 7 8 9 10 11 12 13 14 15 16 17 18 19 20 21 22 23 24 25 26 27 28 29 30 31 32 33 34 35 36 37 38 39 40 41 42 43 44 45 46 47 48 49 50
000
ASUS42 KFFC 171810
RWRGA
WEATHER ROUNDUP FOR GEORGIA
NATIONAL WEATHER SERVICE PEACHTREE CITY GA
100 PM EST TUE JAN 17 2017

NOTE: "FAIR" INDICATES FEW OR NO CLOUDS BELOW 12,000 FEET WITH NO
SIGNIFICANT WEATHER AND/OR OBSTRUCTIONS TO VISIBILITY.

* = USE WITH CAUTION. THE STATIONS MARKED WITH AN ASTERISK MAY NOT
REPORT WEATHER SUCH AS PRECIPITATION, FOG, OR THUNDER AND ARE NOT
QUALITY CONTROLLED BY NWS.

THE REMARK "TC" DENOTES TEMPERATURE READING IN DEGREES CELSIUS.

GAZ001>058-171900-
NORTH GEORGIA

CITY           SKY/WX    TMP DP  RH WIND       PRES   REMARKS
ATLANTA        PTSUNNY   73  55  53 SW14      30.17F
6HR MIN TEMP:  54; 6HR MAX TEMP:  73;

ATHENS         MOSUNNY   72  55  55 SW10      30.17F
6HR MIN TEMP:  56; 6HR MAX TEMP:  72;

CHAMBLEE       MOSUNNY   74  54  49 SW16G25   30.16F
6HR MIN TEMP:  51; 6HR MAX TEMP:  74;

PEACHTREE CITY SUNNY     73  56  54 SW10G18   30.18F
6HR MIN TEMP:  50; 6HR MAX TEMP:  73;

ROME           CLOUDY    72  58  61 SW6G20    30.13F
6HR MIN TEMP:  55; 6HR MAX TEMP:  72;

WEST ATLANTA   MOSUNNY   73  54  51 SW14      30.16F
6HR MIN TEMP:  50; 6HR MAX TEMP:  73;

GAINESVILLE    PTSUNNY   68  54  60 W14       30.19F
6HR MIN TEMP:  53; 6HR MAX TEMP:  68;

CARTERSVILLE   PTSUNNY   71  59  65 S7        30.16F
6HR MIN TEMP:  55; 6HR MAX TEMP:  71;



CITY           SKY/WX    TMP DP  RH WIND       PRES   REMARKS
DALTON*        CLOUDY    64  59  82 S3        30.14F
LAWRENCEVILLE* MOSUNNY   72  54  53 SW12G17   30.21F
MARIETTA       CLOUDY    72  57  58 SW16G23   30.15F
KENNESAW*      PTSUNNY   72  59  64 SW12G20     N/A
CANTON*        PTSUNNY   68  52  56 SW8       30.17F
$$

GAZ059>098-102>109-171900-
CENTRAL GEORGIA

CITY           SKY/WX    TMP DP  RH WIND       PRES   REMARKS
AUGUSTA-BUSH   SUNNY     77  56  48 SW9       30.19F
6HR MIN TEMP:  60; 6HR MAX TEMP:  77;

AUGUSTA-DANIEL SUNNY     74  53  48 SW10      30.20F
6HR MIN TEMP:  60; 6HR MAX TEMP:  74;

COLUMBUS       SUNNY     73  55  53 SW3       30.19F
6HR MIN TEMP:  50; 6HR MAX TEMP:  73;

MACON          MOSUNNY   72  56  57 SW8       30.20F
6HR MIN TEMP:  51; 6HR MAX TEMP:  72;



CITY           SKY/WX    TMP DP  RH WIND       PRES   REMARKS
LAGRANGE*      CLOUDY    74  64  69 W6        30.19F
SYLVANIA*      SUNNY    N/A N/A N/A SW6       30.23F
MILLEDGEVILLE* SUNNY     72  61  68 CALM      30.20F
$$

GAZ099>101-110>166-171900-
SOUTH GEORGIA

CITY           SKY/WX    TMP DP  RH WIND       PRES   REMARKS
SAVANNAH       MOSUNNY   73  59  61 SW7       30.24F
6HR MIN TEMP:  57; 6HR MAX TEMP:  73;

VALDOSTA       MOSUNNY   77  60  55 W7        30.23F
6HR MIN TEMP:  50; 6HR MAX TEMP:  77;

ALMA           MOSUNNY   76  60  57 SW9       30.22F
6HR MIN TEMP:  58; 6HR MAX TEMP:  76;

ST SIMONS      SUNNY     73  62  68 SW5       30.23F
6HR MIN TEMP:  55; 6HR MAX TEMP:  73;

ALBANY         MOSUNNY   77  60  55 SW13      30.23F
BRUNSWICK      MOSUNNY   75  64  69 SW8       30.24F


CITY           SKY/WX    TMP DP  RH WIND       PRES   REMARKS
BAINBRIDGE*    MOSUNNY   79  61  53 SW12      30.22F
MOULTRIE*      MOSUNNY   75  61  60 S8        30.23F
VIDALIA*       MOSUNNY   75  63  64 SW7       30.22F
WAYCROSS*      MOSUNNY   79  64  60 SW8       30.23F
DOUGLAS*       MOSUNNY   75  55  50 SW9       30.24F
$$



USA.gov is the U.S. government's official web portal to all federal, state and local government web resources and services.